Helicity
69 61 38 16 14 -28 53 50 42 32 26 -4 9 10 3 15 14 35 55 57 45 37 39 44 72 100 108 119 149 172 175 157 152 160 128 92 82 63 68 66 59 52 35 28
78 34 4 7 17 21 33 27 20 26 33 13 1 12 22 12 11 25 63 55 42 35 67 68 59 87 106 111 116 128 139 182 167 143 117 96 74 45 41 46 50 58 49 41
17 64 18 30 23 21 14 10 18 27 48 16 23 38 61 29 7 41 51 49 33 7 27 74 61 82 79 83 86 116 137 172 158 150 96 79 60 57 31 25 35 40 47 57
19 1 27 39 12 21 18 21 4 22 49 24 58 1 73 54 32 40 30 26 32 22 33 92 114 99 85 91 108 139 167 167 148 103 84 65 76 39 58 40 27 46 38 39
58 35 38 59 40 30 20 34 45 67 57 66 71 38 37 69 29 17 27 27 47 37 52 108 138 124 68 101 132 156 164 154 106 92 139 95 60 -6 33 28 15 26 47 38
91 96 74 30 43 42 58 67 75 54 19 57 67 35 12 43 55 14 57 59 85 118 113 120 111 123 72 100 143 140 141 125 106 83 54 47 24 14 13 20 20 49 48 55
66 65 67 73 99 80 56 85 70 56 59 17 69 61 6 64 78 46 45 66 123 125 132 90 140 72 59 72 82 76 92 117 82 58 53 29 0 15 23 14 29 39 46 46
91 70 72 80 43 75 73 44 -28 42 14 49 76 41 54 75 65 30 38 85 139 133 122 84 64 48 38 32 17 18 52 86 83 68 75 14 32 16 26 27 18 21 24 45
77 64 71 35 29 -1 68 23 -28 21 24 40 10 48 41 77 24 41 63 87 103 136 115 71 53 46 51 20 -5 -3 12 43 76 86 50 33 18 -6 42 30 28 30 39 52
58 134 28 57 47 25 17 11 37 22 7 30 55 54 -5 50 39 60 53 68 88 128 117 92 85 47 64 46 -6 -27 -5 20 79 96 64 51 52 11 18 28 67 20 22 30
11 59 66 65 42 35 61 15 -8 25 58 20 11 40 70 48 67 54 50 63 78 107 117 115 115 86 125 42 20 10 13 16 37 83 84 61 49 10 -8 19 35 40 17 24
11 28 33 7 64 36 27 19 31 2 78 28 37 35 57 58 48 45 75 90 75 109 103 177 126 92 62 45 28 19 -12 12 17 57 80 68 42 2 8 -40 14 20 22 16
66 45 33 33 59 56 38 14 15 3 49 39 6 39 40 41 44 69 94 113 124 111 174 118 86 90 68 67 53 15 -6 20 30 40 63 62 62 35 19 11 -9 15 29 20
61 80 59 12 87 52 40 -15 4 8 12 9 0 20 35 28 54 89 119 151 191 159 74 64 75 87 61 24 35 6 20 29 37 25 52 78 52 41 25 5 27 36 35 38
91 64 41 67 61 61 29 15 15 15 1 -24 -10 20 36 42 70 114 154 227 179 130 106 79 70 41 19 21 29 24 25 38 31 36 51 80 73 40 34 29 33 45 49 43
99 72 66 53 47 45 30 -6 -26 -15 -22 -18 15 18 89 114 163 187 198 191 167 125 166 72 34 18 -4 -2 26 38 60 38 50 62 69 77 68 57 46 37 29 23 18 22
130 90 65 46 71 51 43 30 27 30 53 -15 15 85 92 107 148 236 235 252 284 185 69 49 46 19 -4 -17 9 34 56 60 70 63 94 87 62 67 60 38 34 34 29 23
109 108 86 54 80 51 98 95 95 125 120 128 120 115 89 138 287 333 354 252 175 122 80 74 57 36 20 22 17 36 36 81 96 87 123 104 84 91 75 71 69 56 44 50
127 88 81 110 75 45 36 82 76 53 55 86 99 104 157 205 332 294 249 171 140 106 77 65 65 54 43 42 41 53 56 92 122 119 115 89 177 147 135 141 114 103 99 99
112 137 137 91 121 90 110 114 96 77 80 60 96 137 190 145 127 236 194 125 85 73 57 56 62 78 93 103 84 72 105 130 145 134 263 302 212 188 172 179 188 197 196 180
60 65 74 87 114 84 107 77 73 113 157 143 125 159 167 234 276 167 118 97 84 62 66 72 82 101 140 163 181 256 298 400 340 381 346 306 252 227 182 196 233 282 209 205
70 52 56 58 85 85 112 64 142 163 131 127 158 196 272 207 199 158 111 85 69 57 76 96 97 121 167 185 213 255 298 265 320 377 368 351 315 261 239 220 226 279 297 321
131 130 105 142 128 127 104 174 104 115 109 129 145 140 126 134 151 97 79 65 50 72 105 110 126 165 194 181 181 209 167 216 278 321 278 225 217 199 164 85 142 234 271 260
99 99 119 85 74 80 70 78 93 101 133 130 114 105 116 121 99 79 52 49 67 95 109 130 141 175 174 149 142 134 123 145 198 262 271 196 247 237 208 229 152 205 216 190
133 77 99 86 64 54 60 78 81 104 122 139 146 149 114 89 62 48 51 74 96 117 123 130 169 122 90 83 111 102 88 85 135 165 139 124 116 141 220 235 187 148 158 134
86 63 58 74 96 85 62 74 75 79 73 85 79 52 55 43 41 59 83 104 120 120 107 141 171 110 39 12 31 28 61 72 89 118 102 87 118 155 144 119 169 182 109 90
Wind_Speed
6 6 10 11 9 13 25 23 22 22 31 27 22 23 22 20 15 13 12 14 15 10 12 14 17 17 14 14 13 11 11 14 18 22 28 33 34 38 37 37 41 36 27 29
14 11 14 19 17 17 17 19 19 26 19 27 24 25 17 21 16 12 12 13 15 11 11 11 12 14 13 11 10 9 9 18 21 23 27 33 38 45 39 31 43 49 45 39
16 30 18 11 9 13 17 20 16 17 30 21 24 14 20 23 19 18 16 18 18 8 8 12 16 13 13 12 12 10 13 20 22 25 26 34 38 48 42 34 40 43 41 42
26 26 31 7 6 11 21 18 20 13 16 18 26 23 22 27 22 10 7 13 12 17 13 13 15 17 16 16 16 17 20 23 26 24 27 25 25 50 53 52 48 43 44 47
28 22 12 12 16 11 22 29 20 18 13 24 13 20 37 31 33 16 13 14 19 24 20 17 17 19 20 23 22 23 25 27 28 27 27 17 13 17 54 55 54 50 45 49
46 31 25 17 19 16 15 17 20 21 13 8 18 18 27 40 35 30 23 19 19 20 22 22 22 23 25 26 28 28 28 32 31 29 26 18 19 39 44 47 50 36 46 49
26 25 23 21 20 14 13 10 13 11 7 6 26 20 9 34 31 26 22 18 20 18 20 25 23 23 25 28 32 33 33 36 34 36 40 30 36 38 42 43 29 27 44 42
32 32 13 12 9 18 10 8 9 23 7 18 25 20 24 27 26 21 18 18 19 16 17 20 23 25 29 32 36 38 38 38 39 39 43 4 37 36 31 20 19 31 41 32
32 36 25 19 6 8 8 13 10 45 29 45 11 22 10 20 20 20 21 19 18 18 19 20 24 28 32 34 36 36 41 40 42 41 41 45 44 39 26 17 19 17 21 21
32 38 16 10 12 12 21 8 6 7 43 35 22 30 14 20 17 17 20 22 21 19 21 24 25 29 30 33 35 36 38 37 40 42 40 41 41 35 20 20 12 13 11 8
27 30 18 12 10 6 7 6 11 42 33 49 42 30 24 19 17 18 22 23 20 17 16 19 24 27 31 32 32 36 33 33 35 37 38 38 42 44 22 22 14 14 16 12
16 27 31 18 22 31 15 20 16 9 19 19 53 46 26 23 17 17 22 24 21 19 17 18 21 24 27 30 32 31 33 30 31 36 40 38 38 42 41 32 16 18 20 18
13 27 35 22 23 19 15 9 11 5 42 24 29 37 28 27 21 19 24 25 22 18 18 17 19 20 23 28 32 32 31 28 29 33 37 39 37 36 35 36 31 27 22 18
22 33 47 39 37 17 16 8 7 10 13 9 12 41 33 31 21 19 23 23 24 21 15 16 18 20 19 21 23 26 23 24 26 27 32 36 38 38 35 33 32 27 27 18
30 39 41 54 45 37 31 6 16 26 30 37 46 40 41 26 20 21 21 21 22 21 19 19 22 27 30 16 20 20 19 20 21 22 26 28 31 34 35 34 31 30 30 27
33 43 42 49 40 42 32 12 9 29 37 59 60 55 38 21 17 22 23 22 20 18 20 22 28 33 38 39 14 12 13 12 15 17 19 21 24 27 27 28 30 29 27 24
39 42 45 53 36 42 36 17 18 11 14 35 18 32 19 16 18 21 24 24 23 22 23 25 35 39 41 42 31 14 12 9 10 11 13 14 16 20 21 21 22 23 23 23
39 41 47 54 40 46 36 32 32 38 31 31 33 28 18 16 20 24 26 23 24 24 29 35 39 43 47 38 35 28 16 6 2 4 7 9 11 15 17 18 20 21 20 21
44 39 47 58 54 52 35 28 29 28 26 28 26 21 14 13 18 29 27 26 25 28 35 41 46 51 52 49 42 30 16 5 4 2 2 5 12 15 16 17 18 20 20 20
39 46 49 46 69 62 46 35 37 34 41 28 27 19 14 12 20 32 27 25 29 33 38 44 46 48 52 56 43 27 17 2 5 2 14 13 12 12 15 18 21 21 21 20
39 41 45 48 61 52 39 40 40 47 43 32 28 25 23 26 34 20 20 26 32 35 39 41 44 48 52 50 40 31 27 18 11 12 13 14 14 16 18 20 21 20 19 19
46 50 51 52 63 66 34 35 50 40 34 32 28 24 24 17 18 20 23 27 33 36 38 42 44 47 47 43 35 30 25 18 14 13 14 14 15 16 18 19 18 18 20 19
53 49 50 47 44 36 36 36 34 33 30 27 23 18 13 15 18 20 24 28 33 35 37 39 40 43 44 40 33 30 28 24 20 18 18 17 18 19 25 24 22 18 21 21
43 41 49 46 41 36 31 30 27 22 23 23 21 19 16 15 16 20 23 28 31 33 34 34 35 37 36 37 36 34 32 31 29 27 22 19 22 20 25 24 27 26 26 24
46 39 45 43 34 30 25 23 18 16 16 15 18 19 15 13 17 17 19 24 26 28 29 29 30 31 35 35 35 35 37 36 35 32 28 24 22 25 28 32 31 32 32 32
43 48 47 48 29 37 28 18 14 13 14 16 14 14 15 14 14 14 19 20 22 24 23 23 25 30 35 36 37 36 36 34 34 34 32 29 29 29 31 33 36 40 38 36
Wind_Direction
315 298 280 302 305 321 333 336 339 357 355 9 23 23 38 37 42 45 45 42 29 89 109 120 131 134 119 119 119 87 60 28 11 357 340 330 330 315 304 290 278 272 258 257
319 265 293 311 316 319 325 329 328 343 18 5 4 356 22 20 24 43 39 23 16 66 117 102 117 130 122 112 116 104 65 15 2 354 345 336 329 312 311 310 279 268 265 262
296 319 315 290 297 309 313 320 323 340 347 360 0 355 2 8 17 16 6 1 5 52 78 114 125 114 107 92 106 87 40 16 9 1 350 337 327 307 306 312 287 273 265 259
300 301 312 301 247 308 314 323 325 327 355 1 5 356 8 355 1 24 45 11 26 13 33 46 85 75 81 82 82 57 36 22 16 11 356 350 340 306 292 286 280 272 260 256
310 313 303 295 304 298 308 323 331 341 350 347 9 356 336 352 348 23 24 36 17 19 74 70 71 57 76 73 65 51 39 32 27 24 27 32 23 217 284 266 260 256 259 253
287 312 313 302 307 313 325 331 334 338 344 338 352 5 354 342 346 356 12 30 49 46 71 71 54 60 75 63 51 51 48 37 38 39 31 49 61 260 262 260 253 264 250 245
294 300 313 319 315 297 286 306 328 337 349 336 356 9 20 348 356 356 2 26 36 47 79 85 59 53 59 54 41 45 49 43 45 41 42 61 292 279 264 253 271 270 243 247
294 299 267 301 258 316 226 243 300 332 346 342 353 4 14 13 359 7 25 35 49 54 58 67 56 55 56 38 34 37 45 47 48 51 53 64 345 324 308 328 293 251 235 248
298 297 318 315 246 224 309 218 224 294 320 302 353 8 46 26 39 33 45 51 65 67 63 60 48 46 42 38 36 39 31 47 50 59 61 58 9 2 331 327 268 272 255 249
301 299 322 336 340 310 294 170 290 304 271 317 346 347 18 40 64 62 47 41 62 55 72 82 64 64 45 26 28 28 32 47 54 58 64 66 62 26 330 353 314 2 353 301
285 293 317 321 303 274 251 228 287 294 307 299 317 342 15 33 43 59 35 35 56 60 60 58 44 36 24 27 33 10 24 47 58 65 74 75 79 101 351 1 327 289 355 325
264 292 285 292 317 302 195 184 192 225 311 311 292 306 359 360 23 36 15 18 50 77 80 30 48 60 46 27 22 27 1 34 57 64 67 78 94 99 100 33 305 332 331 326
277 284 280 293 301 303 296 267 288 275 294 315 317 317 352 333 349 360 360 13 35 63 54 49 60 55 56 31 11 0 345 44 57 63 61 68 93 93 103 105 73 33 23 352
283 282 269 273 297 294 183 246 193 180 184 182 327 310 326 321 338 348 347 6 12 18 35 40 28 34 73 81 84 162 76 71 75 70 56 60 69 75 76 76 81 48 53 52
278 277 277 272 290 294 293 217 183 180 192 203 232 312 306 317 329 343 351 3 10 356 13 7 3 349 345 134 96 107 96 59 61 67 59 62 63 61 62 64 53 48 43 46
278 277 278 277 288 290 291 251 236 189 198 232 255 277 305 326 340 340 348 354 3 4 2 347 339 338 330 325 53 59 53 52 46 66 64 56 56 58 48 58 63 53 39 31
272 273 275 273 288 291 292 271 276 215 292 191 181 305 335 338 336 337 338 346 349 348 344 340 320 327 330 326 343 3 3 15 11 15 38 38 43 50 49 34 42 44 35 24
274 272 274 272 285 281 299 303 292 283 287 287 293 309 336 351 350 350 346 344 337 333 323 323 325 324 324 336 338 339 332 324 31 6 7 6 17 24 21 17 14 16 15 6
273 272 274 268 273 277 294 301 299 289 287 289 299 315 338 1 356 336 343 338 329 321 317 320 322 321 322 327 331 332 325 250 171 150 81 347 346 0 4 357 357 0 360 0
274 271 269 279 266 270 282 289 291 292 283 294 298 307 320 330 318 321 327 329 320 319 323 324 329 331 330 325 334 340 339 297 148 112 331 328 342 359 355 352 338 350 355 348
265 268 268 271 272 277 287 288 288 276 283 294 298 302 307 310 316 349 340 324 318 322 326 338 340 338 334 338 342 346 347 345 7 14 352 335 344 346 347 344 342 345 348 1
264 266 269 272 273 271 295 294 276 289 295 295 299 303 311 337 347 344 327 319 316 318 335 342 345 344 346 353 360 2 2 4 16 16 10 359 355 1 360 357 357 3 357 358
266 273 275 273 285 294 297 295 298 296 292 299 303 317 335 337 330 328 318 318 313 327 339 348 352 354 355 3 12 21 24 35 39 43 22 16 28 34 49 43 29 359 358 351
274 279 274 278 284 294 298 299 305 312 305 306 307 314 325 330 326 319 317 317 322 336 338 348 359 7 15 18 28 37 43 50 52 54 49 36 29 20 23 14 18 25 20 10
271 270 274 277 286 292 299 304 316 325 330 336 324 320 335 338 320 330 327 328 342 352 349 356 9 29 36 42 45 46 53 58 59 56 49 39 33 35 35 31 25 31 22 30
263 267 269 275 283 281 284 301 313 318 325 326 336 339 345 343 336 354 339 348 356 2 4 13 33 50 54 51 51 51 53 54 60 60 54 48 47 44 43 43 37 30 32 28